[[{"header":{"parameterUnit":"m.s-1","parameterCategory":1,"la1":30.2991,"la2":30.254,"lo1":-89.0895,"lo2":-89.0444,"dy":0.0017,"dx":0.0017,"nx":28,"ny":28,"refTime":"2024-04-04T03:00:00:Z","depth":0,"parameterNumber":2,"parameterNumberName":"U-component_of_WINDS"},"data":[0,0,0,0,0,0,0,0,0,0,0,0,0,0,0,0,0,0,0,0,0,0,0,0,0,0,0,0,0,0,0,0,0,0,0,0,0,0,0,0,0,0,0,0,0,0,0,0,0,0,0,0,0,0,0,0,0,0,1.4923,1.4925,0,1.5034,1.5036,1.5037,1.507,1.5069,1.5068,1.5068,1.5183,1.5187,1.519,0,0,0,0,0,0,0,0,0,0,0,0,0,1.4742,1.4745,1.4923,1.4925,1.4926,1.5034,1.5036,1.5037,1.507,1.5069,1.5068,1.5068,1.5182,1.5186,1.5191,0,0,0,0,0,0,0,0,0,0,0,0,0,1.4834,1.4746,1.4923,1.4955,1.4959,1.5034,1.5036,1.5038,1.507,1.5069,1.5068,1.5067,1.5181,1.5186,1.5191,1.5242,0,0,1.5208,1.521,0,0,0,0,0,0,0,0,1.4828,1.484,1.4949,1.4953,1.4958,1.5037,1.5014,1.5106,1.507,1.5028,1.5068,1.5067,1.5135,1.5144,1.5167,1.5248,1.5253,1.5208,1.5211,1.5214,1.5215,0,0,0,0,0,0,0,1.4822,1.4836,1.4967,1.4951,1.4956,1.4965,1.4977,1.5032,1.5085,1.5032,1.5034,1.5047,1.5138,1.5162,1.517,1.5254,1.5208,1.5213,1.5216,1.5218,1.5384,1.5385,0,0,0,0,0,0,1.481,1.483,1.4964,1.4971,1.489,1.4969,1.4983,1.5013,1.5085,1.5095,1.5047,1.5048,1.5153,1.5164,1.5174,1.524,1.5214,1.5219,1.5222,1.5383,1.5385,1.5386,0,0,0,0,0,0,1.4806,1.4822,1.4959,1.4901,1.492,1.4973,1.5007,1.5015,1.504,1.5097,1.5107,1.5062,1.5153,1.5167,1.5225,1.5244,1.5221,1.5226,1.5382,1.5384,1.5385,1.537,0,0,0,0,0,0,1.4801,1.482,1.4839,1.4901,1.4922,1.5007,1.5008,1.5018,1.5049,1.505,1.5113,1.5123,1.5153,1.5217,1.5231,1.5251,1.523,1.538,1.5383,1.5385,1.5369,1.5371,1.5373,0,0,0,0,0,1.4794,1.483,1.484,1.4856,1.4947,1.5008,1.5021,1.5054,1.505,1.507,1.5107,1.5121,1.524,1.5223,1.5239,1.5261,1.5379,1.5382,1.5385,1.5368,1.5371,1.5373,0,0,0,0,0,0,1.4768,1.4839,1.485,1.4908,1.4952,1.5014,1.504,1.5055,1.5102,1.5102,1.5142,1.5156,1.5212,1.5243,1.5222,1.5315,1.531,1.5316,1.5293,1.5296,1.5297,1.5288,1.5235,0,0,0,0,0,1.4769,1.4812,1.4872,1.4917,1.4939,1.4986,1.5013,1.5036,1.5083,1.5102,1.5144,1.519,1.5238,1.5269,1.5316,1.5375,1.5389,1.5398,1.54,1.5401,1.5405,1.544,1.5444,1.5394,1.5394,1.5394,0,0,1.4772,1.4816,1.484,1.4913,1.495,1.4995,1.5001,1.5047,1.5081,1.511,1.5167,1.52,1.5254,1.5313,1.5341,1.534,1.5423,1.5404,1.5405,1.5408,1.5443,1.5447,1.5452,1.5396,1.5396,1.5396,0,0,1.4799,1.4836,1.4878,1.4915,1.4971,1.5003,1.5013,1.5073,1.5096,1.5155,1.5177,1.5219,1.53,1.5339,1.5369,1.5413,1.5428,1.5428,1.5437,1.547,1.5474,1.5478,1.5494,1.5499,1.5432,1.5432,1.5432,0,1.4795,1.4862,1.4898,1.4944,1.4976,1.5004,1.5048,1.5082,1.5151,1.5173,1.5171,1.5275,1.5314,1.5383,1.5394,1.5417,1.5431,1.542,1.547,1.5474,1.5478,1.5494,1.55,1.5432,1.5432,1.5432,1.5432,0,1.4855,1.4901,1.4929,1.4994,1.503,1.5074,1.5118,1.5149,1.517,1.5202,1.5262,1.531,1.5368,1.5386,1.5406,1.5459,1.5457,1.5462,1.5458,1.5482,1.5498,1.5504,1.5431,1.5431,1.5431,1.5431,0,0,1.4866,1.4953,1.4962,1.4993,1.5058,1.5095,1.5142,1.5199,1.5225,1.5273,1.5313,1.5383,1.5389,1.5423,1.5449,1.5478,1.5511,1.548,1.5482,1.5484,1.5572,1.5567,1.5573,1.5521,1.5523,1.5524,1.5568,0,1.4901,1.4985,1.502,1.5087,1.5132,1.5161,1.5202,1.5247,1.5278,1.5322,1.5357,1.5406,1.541,1.5431,1.5461,1.55,1.5529,1.5498,1.556,1.5562,1.5544,1.5582,1.5576,1.5615,1.5574,1.5575,1.5576,0,1.4952,1.5,1.5072,1.5134,1.5154,1.5189,1.5245,1.5286,1.5338,1.536,1.5399,1.5423,1.5475,1.5468,1.554,1.5518,1.5546,1.557,1.5572,1.5578,1.5569,1.5589,1.5628,1.5634,1.5586,1.5585,1.5584,0,1.4953,1.5036,1.509,1.5116,1.5189,1.5214,1.5245,1.5297,1.533,1.5379,1.5401,1.5456,1.5485,1.5528,1.5567,1.5558,1.5636,1.5632,1.5655,1.5654,1.5669,1.5667,1.5713,1.5688,1.5688,1.5688,1.5688,0,1.4988,1.5031,1.5092,1.5125,1.5175,1.5216,1.5264,1.5298,1.5344,1.5385,1.5415,1.5453,1.5502,1.5547,1.5578,1.5633,1.5647,1.5666,1.5673,1.5663,1.566,1.5681,1.5679,1.569,1.5689,1.5689,1.5689,0,1.4997,1.5039,1.51,1.5165,1.5183,1.5216,1.5272,1.5306,1.5341,1.5392,1.5407,1.5461,1.5515,1.5559,1.563,1.5651,1.5709,1.5718,1.5691,1.5695,1.5716,1.5713,1.5776,1.5786,1.5754,1.5755,1.5755,0,1.5016,1.505,1.5119,1.5148,1.518,1.5227,1.5261,1.5303,1.5337,1.5401,1.5428,1.5484,1.5532,1.5618,1.5664,1.5719,1.5729,1.5748,1.5738,1.5726,1.5729,1.5726,1.573,1.5748,1.5748,1.5748,1.5748,0,1.5045,1.5065,1.5112,1.5167,1.5206,1.5252,1.5298,1.5321,1.5372,1.5409,1.5465,1.5502,1.5576,1.5632,1.5693,1.5726,1.5746,1.5752,1.576,1.5749,1.5732,1.5741,1.5694,1.5749,1.5749,1.5749,1.5749,1.5749,1.5059,1.5091,1.5145,1.5197,1.5237,1.528,1.5315,1.5354,1.5402,1.5464,1.5488,1.5545,1.5599,1.5683,1.5717,1.5764,1.5765,1.5777,1.578,1.5782,1.5781,1.5725,1.5775,1.5775,1.5775,1.5775,1.5775,0,1.509,1.5126,1.5174,1.5238,1.5279,1.5295,1.5348,1.5381,1.5432,1.548,1.5527,1.5593,1.5648,1.5699,1.5757,1.5785,1.5796,1.5799,1.5797,1.5804,1.5776,1.5763,1.5789,1.5789,1.5789,1.5789,1.5789,1.5789,1.511,1.5165,1.5192,1.5268,1.5305,1.5361,1.539,1.5431,1.547,1.5541,1.5587,1.5621,1.5671,1.5733,1.5785,1.5799,1.5819,1.582,1.5836,1.5808,1.5806,1.5804,1.5792,1.5824,1.5824,1.586,1.586,1.586]},{"header":{"parameterUnit":"m.s-1","parameterCategory":1,"la1":30.2991,"la2":30.254,"lo1":-89.0895,"lo2":-89.0444,"dy":0.0017,"dx":0.0017,"nx":28,"ny":28,"refTime":"2024-04-04T03:00:00:Z","depth":0,"parameterNumber":3,"parameterNumberName":"V-component_of_WINDS"},"data":[0,0,0,0,0,0,0,0,0,0,0,0,0,0,0,0,0,0,0,0,0,0,0,0,0,0,0,0,0,0,0,0,0,0,0,0,0,0,0,0,0,0,0,0,0,0,0,0,0,0,0,0,0,0,0,0,0,0,0.7087,0.7087,0,0.7178,0.7179,0.718,0.7132,0.713,0.7127,0.7125,0.7223,0.7228,0.7233,0,0,0,0,0,0,0,0,0,0,0,0,0,0.6872,0.6876,0.7086,0.7088,0.7089,0.7178,0.7179,0.718,0.7133,0.713,0.7127,0.7124,0.7222,0.7227,0.7233,0,0,0,0,0,0,0,0,0,0,0,0,0,0.6964,0.6877,0.7086,0.7075,0.7075,0.7177,0.7179,0.7181,0.7133,0.7129,0.7126,0.7122,0.722,0.7227,0.7234,0.7353,0,0,0.7257,0.726,0,0,0,0,0,0,0,0,0.6959,0.6972,0.7076,0.7076,0.7076,0.714,0.7139,0.7239,0.7134,0.7111,0.7125,0.7121,0.7199,0.7208,0.7233,0.7358,0.7362,0.7257,0.7262,0.7265,0.7267,0,0,0,0,0,0,0,0.6953,0.6968,0.7123,0.7077,0.7078,0.7066,0.7076,0.7158,0.7175,0.7113,0.711,0.7121,0.7198,0.7226,0.7235,0.7364,0.7257,0.7264,0.7268,0.7271,0.7586,0.759,0,0,0,0,0,0,0.6947,0.6963,0.712,0.7125,0.7007,0.7073,0.7084,0.7123,0.7174,0.7178,0.7124,0.7118,0.7215,0.7226,0.7238,0.7378,0.7265,0.7272,0.7276,0.7582,0.7587,0.7592,0,0,0,0,0,0,0.6942,0.6961,0.7116,0.7043,0.7062,0.7081,0.7126,0.7127,0.7155,0.7182,0.7185,0.7149,0.7213,0.7228,0.7324,0.7381,0.7275,0.7282,0.7578,0.7584,0.7589,0.7661,0,0,0,0,0,0,0.6936,0.696,0.7005,0.7045,0.7066,0.72,0.713,0.7131,0.7167,0.716,0.7206,0.7211,0.7211,0.7313,0.7331,0.7389,0.7287,0.7573,0.7581,0.7588,0.7654,0.7669,0.7682,0,0,0,0,0,0.6929,0.7024,0.7008,0.7027,0.7123,0.7204,0.7216,0.7213,0.7172,0.7217,0.7234,0.7209,0.7372,0.7323,0.7343,0.7405,0.7569,0.7578,0.7587,0.7647,0.7666,0.7681,0,0,0,0,0,0,0.6994,0.7029,0.7012,0.7122,0.716,0.7195,0.7253,0.7233,0.7285,0.7277,0.7273,0.7283,0.7382,0.7403,0.7348,0.752,0.7464,0.7477,0.7503,0.7521,0.7535,0.7527,0.7294,0,0,0,0,0,0.702,0.7082,0.711,0.7204,0.7224,0.7235,0.727,0.7264,0.7304,0.732,0.7344,0.7384,0.7444,0.7484,0.754,0.7656,0.7664,0.7708,0.7722,0.7733,0.7745,0.7804,0.7823,0.7621,0.7621,0.7621,0,0,0.7078,0.7104,0.7144,0.7218,0.7246,0.731,0.7249,0.732,0.7367,0.7331,0.7422,0.7441,0.7485,0.759,0.7638,0.7611,0.7802,0.7744,0.7753,0.7759,0.7815,0.7834,0.7851,0.7627,0.7626,0.7625,0,0,0.7213,0.724,0.732,0.7348,0.7391,0.7397,0.7416,0.7454,0.7464,0.7554,0.7528,0.7584,0.7688,0.7719,0.7749,0.789,0.7868,0.7909,0.7982,0.804,0.8056,0.807,0.8118,0.8136,0.7921,0.7921,0.7921,0,0.7279,0.7372,0.7364,0.7435,0.7468,0.7435,0.7516,0.7545,0.7605,0.7628,0.7596,0.7722,0.775,0.786,0.7894,0.792,0.7941,0.7904,0.8054,0.8068,0.8081,0.8127,0.8145,0.7925,0.7925,0.7924,0.7924,0,0.7449,0.7514,0.7574,0.7629,0.7668,0.7744,0.7747,0.7788,0.7777,0.7787,0.7877,0.7909,0.797,0.7995,0.7988,0.8104,0.8085,0.8054,0.7997,0.8105,0.8148,0.8166,0.7932,0.793,0.7929,0.7928,0,0,0.7631,0.7677,0.7699,0.7722,0.7764,0.7815,0.7888,0.7944,0.7978,0.802,0.808,0.8166,0.8136,0.8169,0.8164,0.8215,0.8321,0.8177,0.8178,0.8201,0.8448,0.847,0.8491,0.8307,0.831,0.8313,0.8443,0,0.7768,0.7894,0.7887,0.8005,0.8063,0.8031,0.8095,0.8127,0.8137,0.8188,0.8199,0.8259,0.8216,0.8235,0.8284,0.8298,0.8371,0.8289,0.8362,0.8365,0.8351,0.8514,0.8539,0.8661,0.8461,0.8463,0.8466,0,0.7945,0.7988,0.8112,0.8141,0.8165,0.8222,0.8272,0.8321,0.8356,0.836,0.8394,0.838,0.8452,0.8393,0.8492,0.8436,0.8465,0.8477,0.8481,0.8488,0.8421,0.8524,0.8701,0.8718,0.8492,0.849,0.8488,0,0.8062,0.8152,0.8236,0.8257,0.8295,0.8335,0.8352,0.8384,0.8417,0.846,0.8481,0.8533,0.8562,0.8602,0.8601,0.8559,0.8701,0.8642,0.8704,0.8704,0.8736,0.8734,0.8919,0.8757,0.8757,0.8756,0.8756,0,0.8215,0.8291,0.8289,0.8341,0.8424,0.8415,0.8498,0.8511,0.8539,0.8592,0.8568,0.8619,0.8615,0.8666,0.8666,0.8746,0.876,0.8764,0.8763,0.8766,0.8765,0.8785,0.8776,0.8761,0.876,0.8759,0.8758,0,0.8361,0.8363,0.8452,0.8478,0.8486,0.8546,0.8569,0.8618,0.8623,0.8691,0.8706,0.8716,0.8774,0.8777,0.8845,0.8844,0.8941,0.8932,0.8929,0.8927,0.8988,0.8982,0.9192,0.9218,0.904,0.9041,0.9043,0,0.8458,0.8515,0.8546,0.8579,0.8598,0.8652,0.8684,0.8677,0.8712,0.8753,0.8796,0.8852,0.8896,0.899,0.9003,0.9054,0.9044,0.9114,0.9052,0.9052,0.9043,0.9039,0.9044,0.9126,0.9128,0.913,0.9131,0,0.863,0.8626,0.8673,0.872,0.8758,0.8795,0.8829,0.8857,0.8853,0.8893,0.8951,0.8985,0.9051,0.9106,0.9154,0.9172,0.9151,0.915,0.9167,0.917,0.9165,0.9167,0.8961,0.9146,0.9144,0.9143,0.9143,0.9142,0.8753,0.8801,0.8829,0.8881,0.8905,0.8936,0.8981,0.8991,0.9038,0.9091,0.9083,0.9147,0.9177,0.9239,0.9261,0.931,0.9286,0.9311,0.9317,0.9323,0.9329,0.9158,0.9319,0.9319,0.9318,0.9318,0.9318,0,0.8922,0.8937,0.8985,0.9031,0.9071,0.9045,0.908,0.9115,0.9171,0.92,0.9242,0.9307,0.9358,0.9374,0.9423,0.9459,0.9451,0.9473,0.947,0.9473,0.9349,0.9328,0.9479,0.9479,0.9479,0.9479,0.9479,0.9479,0.9014,0.9092,0.9092,0.918,0.9195,0.9256,0.9278,0.9305,0.9328,0.94,0.9442,0.9451,0.9474,0.9524,0.9569,0.9572,0.9591,0.9617,0.9616,0.9499,0.9483,0.9467,0.9448,0.9621,0.9622,0.9737,0.9738,0.9738]}]]